Location: Brabourne
(51.1333°N, 1.0000°E)
Time: 21:15:28
(UTC+00:00)

NOSS 3-1 (A) - Pass Details

Date: 31 October 2021
Orbit: 721 x 1491 km, 63.4° (Epoch: 22 November)

Event Time Altitude Azimuth Distance (km) Brightness Sun altitude
Rises 21:50:39 0° 302° (WNW) 3,613 7.1 -47.2°
Reaches altitude 10° 21:53:19 10° 312° (NW) 2,777 6.4 -47.5°
Enters shadow 21:55:03 18° 323° (NW) 2,309 5.9 -47.7°
